Hourly Weather Luh

Today, 13 May, Thursday

Time Temperature Precipitation Wind Pressure Humidity
00:00 +12°C° 0.3 mm 1 mps 705 mmHg 94%
01:00 +12°C° 0.3 mm 1 mps 705 mmHg 94%
02:00 +12°C° 0 mm 1 mps 705 mmHg 94%
03:00 +12°C° 2.1 mm 1 mps 705 mmHg 95%
04:00 +12°C° 2.1 mm 1 mps 705 mmHg 96%
05:00 +12°C° 2.1 mm 1 mps 705 mmHg 98%
06:00 +12°C° 1.5 mm 1 mps 705 mmHg 97%
07:00 +11°C° 1.5 mm 1 mps 705 mmHg 97%
08:00 +11°C° 1.5 mm 1 mps 705 mmHg 97%
09:00 +11°C° 0.3 mm 1 mps 705 mmHg 96%
10:00 +11°C° 0.3 mm 1 mps 705 mmHg 95%
11:00 +12°C° 0.3 mm 1 mps 705 mmHg 94%
12:00 +12°C° 0.2 mm 1 mps 705 mmHg 90%
13:00 +13°C° 0.2 mm 1 mps 705 mmHg 87%
14:00 +14°C° 0.2 mm 1 mps 704 mmHg 83%
15:00 +14°C° 0.4 mm 1 mps 705 mmHg 84%
16:00 +13°C° 0.4 mm 1 mps 705 mmHg 86%
17:00 +13°C° 0.4 mm 1 mps 705 mmHg 87%
18:00 +12°C° 0.2 mm 1 mps 705 mmHg 89%
19:00 +11°C° 0.2 mm 1 mps 705 mmHg 91%
20:00 +11°C° 0.2 mm 1 mps 705 mmHg 94%
21:00 +11°C° 0.1 mm 1 mps 705 mmHg 94%
22:00 +11°C° 0.1 mm 1 mps 705 mmHg 94%
23:00 +11°C° 0.1 mm 1 mps 705 mmHg 94%

Tomorrow, 14 May, Friday

Time Temperature Precipitation Wind Pressure Humidity
00:00 +11°C° 0.1 mm 1 mps 705 mmHg 94%
01:00 +11°C° 0.1 mm 1 mps 705 mmHg 95%
02:00 +11°C° 0.1 mm 1 mps 705 mmHg 95%
03:00 +11°C° 0.2 mm 1 mps 705 mmHg 96%
04:00 +11°C° 0.2 mm 1 mps 705 mmHg 96%
05:00 +11°C° 0.2 mm 1 mps 705 mmHg 97%
06:00 +11°C° 0.6 mm 1 mps 705 mmHg 96%
07:00 +10°C° 0.6 mm 2 mps 705 mmHg 96%
08:00 +10°C° 0.6 mm 2 mps 705 mmHg 96%
09:00 +10°C° 0.4 mm 2 mps 706 mmHg 95%
10:00 +10°C° 0.4 mm 2 mps 706 mmHg 93%
11:00 +10°C° 0.4 mm 2 mps 707 mmHg 91%
12:00 +10°C° 0.3 mm 2 mps 707 mmHg 91%
13:00 +10°C° 0.3 mm 3 mps 707 mmHg 90%
14:00 +10°C° 0.3 mm 3 mps 707 mmHg 90%
15:00 +10°C° 0.2 mm 2 mps 708 mmHg 91%
16:00 +9°C° 0.2 mm 2 mps 708 mmHg 93%
17:00 +9°C° 0.2 mm 2 mps 708 mmHg 94%
18:00 +9°C° 0.2 mm 1 mps 708 mmHg 95%
19:00 +9°C° 0.2 mm 1 mps 708 mmHg 96%
20:00 +9°C° 0.2 mm 1 mps 708 mmHg 96%
21:00 +9°C° 0.4 mm 1 mps 708 mmHg 97%
22:00 +9°C° 0.4 mm 1 mps 708 mmHg 97%
23:00 +9°C° 0.4 mm 1 mps 709 mmHg 98%

Day after tomorrow, 15 May, Saturday

Time Temperature Precipitation Wind Pressure Humidity
00:00 +9°C° 0.5 mm 1 mps 709 mmHg 98%
01:00 +8°C° 0.5 mm 0 mps 709 mmHg 98%
02:00 +9°C° 0.5 mm 0 mps 709 mmHg 98%
03:00 +9°C° 0.1 mm 0 mps 709 mmHg 97%
04:00 +9°C° 0.1 mm 0 mps 709 mmHg 97%
05:00 +8°C° 0.1 mm 0 mps 709 mmHg 97%
06:00 +9°C° 0 mm 0 mps 710 mmHg 95%
07:00 +10°C° 0 mm 0 mps 710 mmHg 93%
08:00 +11°C° 0 mm 1 mps 710 mmHg 91%
09:00 +13°C° 0.1 mm 1 mps 710 mmHg 83%
10:00 +14°C° 0.1 mm 1 mps 710 mmHg 76%
11:00 +16°C° 0.1 mm 1 mps 710 mmHg 69%
12:00 +16°C° 0.1 mm 1 mps 710 mmHg 65%
13:00 +18°C° 0.1 mm 1 mps 710 mmHg 60%
14:00 +19°C° 0.1 mm 1 mps 710 mmHg 56%
15:00 +19°C° 0.1 mm 1 mps 710 mmHg 57%
16:00 +19°C° 0.1 mm 1 mps 709 mmHg 58%
17:00 +19°C° 0.1 mm 1 mps 709 mmHg 58%
18:00 +16°C° 0 mm 1 mps 709 mmHg 67%
19:00 +14°C° 0 mm 1 mps 709 mmHg 76%
20:00 +12°C° 0 mm 1 mps 708 mmHg 85%
21:00 +12°C° 0 mm 1 mps 708 mmHg 86%
22:00 +11°C° 0 mm 1 mps 709 mmHg 87%
23:00 +11°C° 0 mm 1 mps 709 mmHg 88%

16 May, Sunday

Time Temperature Precipitation Wind Pressure Humidity
00:00 +11°C° 0 mm 1 mps 709 mmHg 87%
01:00 +10°C° 0 mm 1 mps 709 mmHg 86%
02:00 +10°C° 0 mm 1 mps 709 mmHg 85%
03:00 +10°C° 0 mm 1 mps 709 mmHg 85%
04:00 +11°C° 0 mm 1 mps 708 mmHg 84%
05:00 +11°C° 0 mm 1 mps 708 mmHg 84%
06:00 +12°C° 0.1 mm 1 mps 708 mmHg 81%
07:00 +14°C° 0.1 mm 1 mps 709 mmHg 77%
08:00 +14°C° 0.1 mm 0 mps 709 mmHg 74%
09:00 +16°C° 0.2 mm 1 mps 709 mmHg 72%
10:00 +18°C° 0.2 mm 1 mps 709 mmHg 69%
11:00 +18°C° 0.2 mm 2 mps 709 mmHg 66%
12:00 +18°C° 0.7 mm 2 mps 709 mmHg 70%
13:00 +18°C° 0.7 mm 2 mps 708 mmHg 74%
14:00 +17°C° 0.7 mm 2 mps 708 mmHg 79%
15:00 +17°C° 0.9 mm 2 mps 708 mmHg 82%
16:00 +16°C° 0.9 mm 1 mps 708 mmHg 85%
17:00 +15°C° 0.9 mm 1 mps 708 mmHg 88%
18:00 +14°C° 0.9 mm 1 mps 708 mmHg 91%
19:00 +14°C° 0.9 mm 1 mps 708 mmHg 94%
20:00 +13°C° 0.9 mm 1 mps 708 mmHg 96%
21:00 +12°C° 2.5 mm 1 mps 708 mmHg 96%
22:00 +12°C° 2.5 mm 1 mps 708 mmHg 97%
23:00 +12°C° 2.5 mm 1 mps 708 mmHg 97%

17 May, Monday

Time Temperature Precipitation Wind Pressure Humidity
00:00 +11°C° 0.1 mm 1 mps 708 mmHg 96%
01:00 +11°C° 0.1 mm 1 mps 708 mmHg 95%
02:00 +10°C° 0.1 mm 1 mps 709 mmHg 95%
03:00 +10°C° 0 mm 1 mps 708 mmHg 95%
04:00 +10°C° 0 mm 1 mps 708 mmHg 95%
05:00 +11°C° 0 mm 1 mps 708 mmHg 95%
06:00 +12°C° 0 mm 1 mps 709 mmHg 92%
07:00 +12°C° 0 mm 1 mps 709 mmHg 90%
08:00 +13°C° 0 mm 1 mps 709 mmHg 87%
09:00 +15°C° 0.1 mm 1 mps 709 mmHg 79%
10:00 +16°C° 0.1 mm 1 mps 709 mmHg 72%
11:00 +18°C° 0.1 mm 1 mps 709 mmHg 64%
12:00 +19°C° 0 mm 1 mps 709 mmHg 60%
13:00 +19°C° 0 mm 2 mps 709 mmHg 56%
14:00 +19°C° 0 mm 2 mps 709 mmHg 52%
15:00 +19°C° 0 mm 2 mps 709 mmHg 54%
16:00 +20°C° 0 mm 1 mps 709 mmHg 56%
17:00 +20°C° 0 mm 1 mps 709 mmHg 58%
18:00 +18°C° 0.1 mm 1 mps 708 mmHg 67%
19:00 +15°C° 0.1 mm 1 mps 708 mmHg 76%
20:00 +14°C° 0.1 mm 1 mps 708 mmHg 86%
21:00 +13°C° 0.2 mm 1 mps 708 mmHg 88%
22:00 +13°C° 0.2 mm 1 mps 708 mmHg 90%
23:00 +13°C° 0.2 mm 1 mps 708 mmHg 93%

18 May, Tuesday

Time Temperature Precipitation Wind Pressure Humidity
00:00 +12°C° 0 mm 1 mps 708 mmHg 93%
01:00 +12°C° 0 mm 1 mps 708 mmHg 92%
02:00 +12°C° 0 mm 1 mps 707 mmHg 92%
03:00 +12°C° 0 mm 1 mps 707 mmHg 92%
04:00 +12°C° 0 mm 1 mps 707 mmHg 92%
05:00 +12°C° 0 mm 1 mps 707 mmHg 92%
06:00 +12°C° 0.6 mm 1 mps 707 mmHg 92%
07:00 +13°C° 0.6 mm 1 mps 706 mmHg 91%
08:00 +14°C° 0.6 mm 1 mps 706 mmHg 91%
09:00 +15°C° 0.5 mm 1 mps 706 mmHg 89%
10:00 +15°C° 0.5 mm 1 mps 706 mmHg 88%
11:00 +16°C° 0.5 mm 1 mps 706 mmHg 86%
12:00 +18°C° 1.1 mm 1 mps 706 mmHg 85%
13:00 +17°C° 1.1 mm 2 mps 705 mmHg 84%
14:00 +18°C° 1.1 mm 2 mps 705 mmHg 83%
15:00 +16°C° 5.2 mm 2 mps 705 mmHg 88%
16:00 +15°C° 5.2 mm 2 mps 705 mmHg 93%
17:00 +13°C° 5.2 mm 2 mps 706 mmHg 98%
18:00 +13°C° 0.9 mm 1 mps 706 mmHg 98%
19:00 +12°C° 0.9 mm 1 mps 706 mmHg 98%
20:00 +12°C° 0.9 mm 1 mps 707 mmHg 98%
21:00 +11°C° 0.1 mm 1 mps 707 mmHg 98%
22:00 +10°C° 0.1 mm 0 mps 707 mmHg 97%
23:00 +10°C° 0.1 mm 0 mps 708 mmHg 97%
Show more

We Need Your Consent

Meteoprog and our Service Providers may store and access personal data such as cookies, device identifiers or other similar technologies on your device and process such data to personalise content and ads, as well as provide social media features and to analyse the traffic.

  • Store and/or access information on your device

    Cookies, device identifiers or other information can be stored or accessed on your device for the purposes indicated above.

  • Personalised ads and content, ad and content measurement, audience insights, and products development

    Ads and content can be personalised based on a profile. More data can be added to better personalise ads and content. Ad and content performance can be measured. Insights about the audience who saw the ads and content can be derived. Such data can be used to develop or improve user’s experience, systems and software.

By clicking ‘I Agree’ you will allow the use of indicated cookies, device identifiers, web beacons or other similar technologies. Your settings can be changed in the browser on your device.

For certain purposes, legitimate interests may be relied on, rather than consent. You can read more about this in our Privacy and Cookie Policy.